Location: Helion Bumpstead
(52.0500°N, 0.4000°E)
Time: 22:01:32
(UTC+00:00)

ATLAS 3B R/B - Pass Details

Date: 15 November 2025
Orbit: 935 x 1258 km, 63.8° (Epoch: 14 December)

Event Time Altitude Azimuth Distance (km) Brightness Sun altitude
Rises 05:23:12 0° 210° (SSW) 4,032 5.5 -17.5°
Reaches altitude 10° 05:25:52 10° 207° (SSW) 3,112 4.9 -17.1°
Maximum altitude 05:33:21 68° 127° (SE) 1,321 3.3 -16.0°
Drops below altitude 10° 05:41:10 10° 47° (NE) 3,249 5.7 -14.8°
Sets 05:44:00 0° 45° (NE) 4,220 6.3 -14.4°
